This demonstration page uses our WeatherBlox Daily Observations layout. Learn more.

Left ArrowRight Arrow

Hourly Observations for June 23, 2021

Temp ( °F °C ) Dew Point ( °F °C ) Humidity (%) Winds ( mph kmh ) Pressure ( in mb ) Visibility ( mi km ) Precip ( " mm )
12:53 am 00:53 Clear 74 23.3 52 11.1 46 46 NNE 5 7 29.80 1009 10 16 0.00 0.00
1:53 am 01:53 Clear 70 21.1 52 11.1 53 53 NNE 3 6 29.82 1010 10 16 0.00 0.00
2:53 am 02:53 Clear 69 20.6 53 11.7 57 57 WNW 3 6 29.83 1010 10 16 0.00 0.00
3:53 am 03:53 Clear 67 19.4 53 11.7 61 61 Calm 29.83 1010 10 16 0.00 0.00
4:53 am 04:53 Clear 67 19.4 53 11.7 61 61 Calm 29.83 1010 10 16 0.00 0.00
5:53 am 05:53 Sunny 65 18.3 52 11.1 63 63 Calm 29.84 1011 10 16 0.00 0.00
6:53 am 06:53 Sunny 69 20.6 53 11.7 57 57 Calm 29.85 1011 10 16 0.00 0.00
7:53 am 07:53 Sunny 72 22.2 55 12.8 55 55 SSE 3 6 29.85 1011 10 16 0.00 0.00
8:53 am 08:53 Sunny 75 23.9 55 12.8 50 50 VRB 5 7 29.85 1011 10 16 0.00 0.00
9:53 am 09:53 Sunny 79 26.1 54 12.2 42 42 VRB 3 6 29.84 1010 10 16 0.00 0.00
10:53 am 10:53 Sunny 83 28.3 54 12.2 37 37 NE 3 6 29.83 1010 10 16 0.00 0.00
11:53 am 11:53 Sunny 87 30.6 53 11.7 31 31 Calm 29.82 1010 10 16 0.00 0.00
12:53 pm 12:53 Sunny 91 32.8 50 10 25 25 S 8 13 29.81 1010 10 16 0.00 0.00
1:53 pm 13:53 Sunny 92 33.3 49 9.4 23 23 SSW 10 17 29.81 1010 10 16 0.00 0.00
2:53 pm 14:53 Sunny 95 35 48 8.9 20 20 SSW 13 20 29.79 1009 10 16 0.00 0.00
3:53 pm 15:53 Sunny 96 35.6 47 8.3 19 19 S 15 24 29.78 1009 10 16 0.00 0.00
4:53 pm 16:53 Sunny 95 35 46 7.8 19 19 SSE 14 22 29.78 1008 10 16 0.00 0.00
5:53 pm 17:53 Sunny 95 35 46 7.8 19 19 S 16 26 29.78 1008 10 16 0.00 0.00
6:53 pm 18:53 Sunny 92 33.3 49 9.4 23 23 SSE 13 20 29.78 1009 10 16 0.00 0.00
7:53 pm 19:53 Sunny 89 31.7 48 8.9 24 24 SSE 10 17 29.81 1009 10 16 0.00 0.00
8:53 pm 20:53 Clear 86 30 49 9.4 28 28 SSW 12 19 29.82 1010 10 16 0.00 0.00
9:53 pm 21:53 Clear 84 28.9 51 10.6 32 32 SSW 6 9 29.84 1010 10 16 0.00 0.00
10:53 pm 22:53 Clear 78 25.6 51 10.6 39 39 E 5 7 29.86 1011 10 16 0.00 0.00
11:53 pm 23:53 Clear 77 25 51 10.6 40 40 S 5 7 29.87 1011 10 16 0.00 0.00

Powered by AerisWeather